Location: Boursonne
(49.2024°N, 3.0468°E)
Time: 08:47:53
(UTC+00:00)

USA 308 - Pass Details

Date: 03 March 2021
Orbit: 568 x 576 km, 54.0° (Epoch: 13 April)

Event Time Altitude Azimuth Distance (km) Brightness Sun altitude
Rises 18:25:44 0° 269° (W) 2,776 8.9 -9.2°
Reaches altitude 10° 18:28:04 10° 276° (W) 1,878 7.2 -9.6°
Maximum altitude 18:32:12 47° 350° (N) 767 3.6 -10.2°
Enters shadow 18:35:58 12° 64° (ENE) 1,745 4.8 -10.9°
